Retour au catalogue

OV2-3

ActifMilitaireHEO
NORAD 13912·PAYLOAD·🇺🇸 United States

Lancé Dec 21, 1965 depuis Cape Canaveral Space Force Station

Loading…

Prochains Passages (prochaines 24 heures)

TLE

FraisSource: Space-Track

Époque: Sep 14, 2026, 07:56 UTC

1 13912U 65108V   26257.33088526  .00008506  00000-0  82148-3 0  9998
2 13912  26.6249 325.3816 5195050 347.2586   3.5284  5.33841905575462

Suivez OV2-3 en temps réel avec AllMySat

Download on the App Store